FW1237 Weather Reports


time (UTC)temp
C
wind
direction
speed
KPH
gust
KPH
rain 1hr
cm
rain 24hr
cm
rain mn
cm
humidity
%
barometer
mb
20260506102718 3 0.0 3.2 0.00 0.00 0.00 62 1013.4
20260506101717 3 68 4.8 9.7 0.00 0.00 0.00 61 1013.6
20260506100717 3 0 3.2 4.8 0.00 0.00 0.00 61 1013.6
20260506095717 3 270 4.8 9.7 0.00 0.00 0.00 61 1013.3
20260506094717 3 45 3.2 4.8 0.00 0.00 0.00 62 1013.2
20260506093717 3 0.0 1.6 0.00 0.00 0.00 62 1013.0
20260506092717 4 0.0 0.0 0.00 0.00 0.00 61 1012.9
20260506091717 4 0.0 3.2 0.00 0.00 0.00 60 1013.1
20260506090717 4 203 1.6 3.2 0.00 0.00 0.00 60 1012.9
20260506085717 5 113 3.2 4.8 0.00 0.00 0.00 59 1012.9
20260506084718 5 23 3.2 12.9 0.00 0.00 0.00 58 1012.7
20260506083718 5 270 4.8 11.3 0.00 0.00 0.00 57 1012.6
20260506082717 5 135 1.6 4.8 0.00 0.00 0.00 56 1012.5
20260506081717 5 135 1.6 3.2 0.00 0.00 0.00 56 1012.5
20260506080718 5 270 3.2 4.8 0.00 0.00 0.00 56 1012.7
20260506072717 5 248 1.6 3.2 0.00 0.00 0.00 60 1012.4
20260506071717 5 0.0 1.6 0.00 0.00 0.00 61 1012.3
20260506070717 5 0.0 1.6 0.00 0.00 0.00 59 1012.3
20260506061718 6 203 3.2 6.4 0.00 0.00 0.00 52 1012.1
20260506060717 7 23 1.6 4.8 0.00 0.00 0.00 52 1011.9
20260506050718 5 248 1.6 1.6 0.00 0.00 0.00 65 1011.6
20260506044737 5 203 1.6 3.2 0.00 0.00 0.00 61 1011.4
20260506043718 5 0.0 1.6 0.00 0.00 0.00 61 1011.5
20260506042716 5 203 1.6 1.6 0.00 0.00 0.00 60 1011.6
20260506041717 6 0.0 0.0 0.00 0.00 0.00 61 1011.3
20260506040717 6 0.0 1.6 0.00 0.00 0.00 62 1011.4
20260506035716 6 180 1.6 3.2 0.00 0.00 0.00 56 1011.4
20260506034717 6 203 1.6 3.2 0.00 0.00 0.00 59 1011.3
20260506033716 6 0.0 0.0 0.00 0.00 0.00 59 1011.2
20260506032716 6 0.0 1.6 0.00 0.00 0.00 61 1011.2
20260506031716 6 158 1.6 3.2 0.00 0.00 0.00 59 1011.1
20260506030717 7 0.0 1.6 0.00 0.00 0.00 59 1011.2
20260506025716 7 0.0 1.6 0.00 0.00 0.00 58 1011.0
20260506024716 7 0.0 1.6 0.00 0.00 0.00 57 1011.0
20260506023716 7 158 1.6 1.6 0.00 0.00 0.00 55 1010.8
20260506022818 7 0.0 1.6 0.00 0.00 0.00 58 1010.7
20260506021716 7 180 1.6 3.2 0.00 0.00 0.00 54 1010.6
20260506020717 7 0.0 1.6 0.00 0.00 0.00 58 1010.5
20260506015716 7 0.0 0.0 0.00 0.00 0.00 60 1010.4
20260506014716 7 0.0 0.0 0.00 0.00 0.00 58 1010.2
20260506013736 7 0.0 1.6 0.00 0.00 0.00 58 1010.1
20260506012717 7 0.0 1.6 0.00 0.00 0.00 57 1010.1
20260506011716 7 0.0 1.6 0.00 0.00 0.00 58 1010.0
20260506010716 8 0.0 0.0 0.00 0.00 0.00 53 1010.1
20260506005716 8 113 3.2 4.8 0.00 0.00 0.00 49 1010.0
20260506004716 9 113 1.6 4.8 0.00 0.00 0.00 45 1009.8
20260506003716 10 0.0 1.6 0.00 0.00 0.00 42 1009.8
20260506002716 10 135 1.6 3.2 0.00 0.00 0.00 41 1009.7
20260506001716 10 45 3.2 4.8 0.00 0.00 0.00 39 1009.7
20260506000716 10 68 3.2 8.0 0.00 0.00 0.00 44 1009.7
20260505235717 10 113 1.6 1.6 0.00 0.00 0.00 39 1009.5
20260505234717 10 0.0 1.6 0.00 0.00 0.00 42 1009.5
20260505233716 10 68 3.2 6.4 0.00 0.00 0.00 40 1009.5
20260505232716 10 135 1.6 6.4 0.00 0.00 0.00 40 1009.4
20260505231716 10 90 6.4 9.7 0.00 0.00 0.00 40 1009.5
20260505230716 10 225 1.6 3.2 0.00 0.00 0.00 38 1009.4
20260505225736 10 293 3.2 4.8 0.00 0.00 0.00 36 1009.5
20260505224716 10 90 4.8 6.4 0.00 0.00 0.00 36 1009.7
20260505223716 10 270 3.2 6.4 0.00 0.00 0.00 35 1009.6
20260505222737 10 90 8.0 12.9 0.00 0.00 0.00 35 1009.6
20260505221738 10 90 4.8 6.4 0.00 0.00 0.00 39 1009.5
20260505220716 11 135 1.6 3.2 0.00 0.00 0.00 38 1009.5
20260505215716 10 203 3.2 8.0 0.00 0.00 0.00 34 1009.6
20260505214717 10 90 6.4 9.7 0.00 0.00 0.00 38 1009.7
20260505213716 11 180 4.8 9.7 0.00 0.00 0.00 36 1009.6
20260505212716 11 158 3.2 4.8 0.00 0.00 0.00 35 1009.6
20260505211716 10 135 3.2 4.8 0.00 0.00 0.00 37 1009.7
20260505210759 10 90 1.6 3.2 0.00 0.00 0.00 35 1009.5
20260505205717 11 113 4.8 8.0 0.00 0.00 0.00 34 1009.7
20260505204716 11 113 4.8 6.4 0.00 0.00 0.00 37 1009.8
20260505203715 11 45 3.2 6.4 0.00 0.00 0.00 37 1009.7
20260505202716 10 203 6.4 8.0 0.00 0.00 0.00 35 1009.7
20260505201716 11 90 6.4 12.9 0.00 0.00 0.00 34 1009.8
20260505200716 11 158 6.4 12.9 0.00 0.00 0.00 34 1009.9
20260505195716 11 113 6.4 12.9 0.00 0.00 0.00 35 1010.0
20260505194716 11 90 9.7 16.1 0.00 0.00 0.00 33 1010.0
20260505193717 12 90 14.5 22.5 0.00 0.00 0.00 33 1009.8
20260505192716 11 113 6.4 11.3 0.00 0.00 0.00 33 1009.9
20260505191715 11 45 8.0 14.5 0.00 0.00 0.00 35 1009.9
20260505190717 11 68 3.2 6.4 0.00 0.00 0.00 35 1009.8
20260505185716 12 338 4.8 8.0 0.00 0.00 0.00 34 1009.9
20260505184716 11 45 8.0 14.5 0.00 0.00 0.00 34 1009.8
20260505183717 12 90 4.8 8.0 0.00 0.00 0.00 38 1009.9
20260505182717 11 45 3.2 9.7 0.00 0.00 0.00 32 1009.8
20260505181717 11 68 6.4 9.7 0.00 0.00 0.00 37 1009.6
20260505180739 11 68 4.8 8.0 0.00 0.00 0.00 34 1009.7
20260505175719 11 90 8.0 11.3 0.00 0.00 0.00 35 1009.6
20260505174717 10 113 9.7 17.7 0.00 0.00 0.00 36 1009.6
20260505173718 10 113 9.7 16.1 0.00 0.00 0.00 37 1009.5
20260505172717 10 135 4.8 6.4 0.00 0.00 0.00 36 1009.6
20260505171719 10 68 4.8 6.4 0.00 0.00 0.00 36 1009.6
20260505170739 10 293 4.8 6.4 0.00 0.00 0.00 37 1009.5
20260505165717 10 158 4.8 8.0 0.00 0.00 0.00 37 1009.5
20260505164717 9 158 4.8 6.4 0.00 0.00 0.00 36 1009.6
20260505163717 9 135 3.2 4.8 0.00 0.00 0.00 35 1009.8
20260505162718 9 45 4.8 12.9 0.00 0.00 0.00 35 1009.7
20260505161737 9 90 9.7 12.9 0.00 0.00 0.00 36 1009.7
20260505160718 8 315 4.8 11.3 0.00 0.00 0.00 35 1009.7
20260505152717 8 113 6.4 12.9 0.00 0.00 0.00 35 1009.6
20260505151740 8 113 4.8 9.7 0.00 0.00 0.00 37 1009.4
20260505150717 8 90 4.8 9.7 0.00 0.00 0.00 39 1009.4
20260505124717 5 113 1.6 3.2 0.00 0.00 0.00 59 1009.1
20260505123717 5 68 3.2 6.4 0.00 0.00 0.00 61 1008.8
20260505122717 5 113 3.2 4.8 0.00 0.00 0.00 65 1008.7
20260505121738 5 135 3.2 4.8 0.00 0.00 0.00 64 1008.5
20260505120737 5 135 3.2 4.8 0.00 0.00 0.00 63 1008.4
20260505115717 5 135 3.2 4.8 0.00 0.00 0.00 61 1008.2
20260505114737 5 113 3.2 6.4 0.00 0.00 0.00 61 1007.9
20260505113717 5 90 3.2 4.8 0.00 0.00 0.00 59 1007.6
20260505112717 5 90 6.4 8.0 0.00 0.00 0.00 59 1007.6
20260505111717 5 180 3.2 4.8 0.00 0.00 0.00 62 1007.5
20260505110717 5 203 3.2 6.4 0.00 0.00 0.00 61 1007.4